sat.trackr.live / text

‹ back to catalog

ASNARO

NORAD 40298 · 2014-070A

PAYLOAD ACTIVE UNKNOWN

§ Identity

Operator
Country
JPN
Launch date
2014-11-06
Launch site
DLS
Launch vehicle
Mass (kg)
RCS (m²)
2.65

Purposes: earth_obs

External: N2YO · Heavens-Above · Gunter

§ Orbital elements

Epoch: 2026-09-20T04:19:20.502624Z

Period
94.77 min
Inclination
97.3375°
Eccentricity
0.0004890
Mean motion
15.19454692 rev/d
Perigee alt
504.1 km
Apogee alt
510.9 km
Semi-major
6,885.6 km
B*
5.5930e-5
RAAN
336.6970°
Arg perigee
181.3518°
Mean anomaly
178.7705°
Rev number
65,843

§ Raw data

ASNARO1 40298U 14070A   26263.18009841  .00001119  00000+0  55930-4 0  99922 40298  97.3375 336.6970 0004890 181.3518 178.7705 15.19454692658438

JSON: /api/v1/satellites/40298 · /tle

For live sub-satellite position, see the globe view (requires WebGL).

§ Visibility from observer

Set your observer location to see the next 7 days of passes ≥ 10°. The values pass through the URL so the page stays shareable.

No JS? Fill the form by hand. The geolocation button needs JavaScript.

§ Radio — SatNOGS DB

ModeDescriptionDownlinkUplink
BPSK S-band telemetry 2.272 GHz

1 transmitter · refreshed weekly from db.satnogs.org